DELTA 1 DEB, 21566

Orbit data source: Space-Track

DELTA 1 DEB, 21566 is space debris in SSO originally from a launch on Thu, 12 Jun 1975 UTC launched from the Air Force Western Test Range (AFWTR). Debris objects in space refer to the collection of defunct objects orbiting the Earth. Examples of debris include non-operational satellites, rocket bodies, and fragments generated from explosions, collisions, or faulty payload assembly.

Loading next visibility...
Identifier
21566, 1975-052HL
Orbit
SSO
Country
Flag of USUS
Related business
Manufacturer
Unknown
Mission
Spacecraft
Bus & Motor
Unknown
Mass
Unknown
Launch date (UTC)
1975-06-12 (50 years ago)
Launch vehicle
Unknown
Launch site
Air Force Western Test Range (AFWTR)
Object type
Payload
Rocket body
Debris
Shape & HBR
Unknown shape, 0.1 m
Radar Cross Section
Small (<0.1 m²)

Expand to show TLE details & history
Last TLE update: 14 hours ago

TLE from 14 hours ago
0 DELTA 1 DEB
1 21566U 75052HL  25287.57654405  .00000182  00000-0  72902-3 0  9993
2 21566  99.5976 325.0150 0323813 326.1599 190.1236 12.83832610612148
Epoch: 2025-10-14T13:50Z
TLE epoch observation values (Epoch: 2025-10-14T13:50:13.405Z)
Latitude
24.00265°
Longitude
-81.6065°
Altitude
1,574.685 km
Speed
6.969 km/s
True Right ascension
09h 57m 14s
True Declination
23° 53' 18"
Sunlit
Object was in daylight at epoch
Visualization orbit readout
Latitude
Unknown
Longitude
Unknown
Altitude
Unknown
Speed
Unknown
Apparent Right ascension
Unknown
Apparent Declination
Unknown
Sunlit
N/A
Visualization observer readout
Local Sidereal Time
22:17:00
Azimuth
Unknown
Elevation
Unknown
Doppler factor
Unknown
Orbital elements
Apogee altitude
1,572.869 km
Perigee altitude
1,074.092 km
Semi-major axis
7,701.617 km
Eccentricity
0.03238
Inclination
99.5976°
RAAN
325.015°
Arg. of periapsis
326.1599°
True anomaly
189.49642°
Mean anomaly
190.1236°
Eccentric anomaly
189.80757°
Mean motion
3.21122 °/min
Orbital period
112.11 mins
BSTAR
0.00072902
Loading maneuver chart data...
Computing Atmospheric mass density...
Loading historical data...
Loading historical data...
Loading historical data...
Loading historical data...
Loading historical data...
Loading historical data...
Loading historical data...

Documentation

Showing up to 5 results
|